Back to catalog

STARLINK-37230

AliveCommunicationsSSO
NORAD 68730·PAYLOAD·🇺🇸 United States

Launched Apr 15, 2026 from Vandenberg Space Force Base

Loading…

Next Passes (next 24 hours)

TLE

FreshSource: CelesTrak SupGP

Epoch: Sep 14, 2026, 15:07 UTC

1 68730C 26082C   26257.63034722 -.00062058  00000+0 -19258-2 0  2577
2 68730  97.2844 119.8851 0002243  88.3082  35.5049 15.33480130    18

Track STARLINK-37230 in real time with AllMySat

Download on the App Store